Flag for Canada Weather past 2 weeks in Strathcona County, Alberta, Canada

Now
73 °F

Mild.


Feels Like: 77 °F
Forecast: 48 / 71 °F
Wind: 8 mph from Northwest

Location: Edmonton Municipal

Current Time: Jul 27, 2015 at 7:59:54 PM

Latest Report: Jul 27, 2015 at 7:00 PM


Visibility: N/A

Pressure: 29.94 "Hg (27.52 "Hg at 728m altitude)

Humidity: 32%

Dew point: 41 °F

Location of Strathcona CountyLocation

Historic Weather in Strathcona County — Graph

°F

Strathcona County temperature yesterday

Maximum temperature yesterday: 70 °F (at 3:00 PM)
Minimum temperature yesterday: 51 °F (at 6:00 AM)
Average temperature yesterday: 62 °F

Past Weeks' High & Low Weather Summary

 TemperatureHumidityPressure
High79 °F (Jul 18, 5:00 PM)96% (Jul 17, 5:00 AM)30.02 "Hg (Jul 17, 5:00 AM)
Low49 °F (Jul 23, 4:00 AM)27% (Jul 14, 3:00 PM)29.67 "Hg (Jul 20, 10:00 PM)
Average65 °F63%29.82 "Hg
* Reported Jul 12 6:00 PM — Jul 27 6:00 PM, Strathcona County, Weather by CustomWeather, © 2015

Note: Actual official high and low records may vary slightly from our data, if they occured in-between our weather recording intervals... More about our weather records

Advertising

Strathcona County weather history for previous 24 hours

 ConditionsComfort  
Time TempWeatherWind HumidityBarometerVisibility
6:00 PM
Mon, Jul 27
73 °FMild.10 mph31%29.93 "HgN/A
5:00 PM72 °FMild.9 mph32%29.92 "HgN/A
4:00 PM71 °FMild.9 mph34%29.92 "HgN/A
3:00 PM72 °FMild.9 mph32%29.93 "HgN/A
2:00 PM71 °FMild.6 mph34%29.93 "HgN/A
1:00 PM69 °FMild.6 mph46%29.94 "HgN/A
12:00 PM68 °FMild.6 mph49%29.94 "HgN/A
11:00 AM66 °FMild.5 mph53%29.95 "HgN/A
10:00 AM62 °FMild.6 mph65%29.95 "HgN/A
9:00 AM59 °FCool.6 mph70%29.96 "HgN/A
8:00 AM59 °FCool.8 mph69%29.95 "HgN/A
7:00 AM56 °FCool.5 mph75%29.94 "HgN/A
6:00 AM55 °FCool.6 mph77%29.92 "HgN/A
5:00 AM55 °FCool.5 mph77%29.90 "HgN/A
4:00 AM57 °FCool.6 mph71%29.90 "HgN/A
3:00 AM58 °FCool.3 mph65%29.90 "HgN/A
2:00 AM59 °FCool.6 mph64%29.90 "HgN/A
1:00 AM60 °FCool.9 mph61%29.90 "HgN/A
12:00 AM61 °FCool.9 mph63%29.89 "HgN/A
11:00 PM
Sun, Jul 26
64 °FMild.5 mph57%29.89 "HgN/A
10:00 PM65 °FMild.5 mph48%29.89 "HgN/A
9:00 PM67 °FMild.5 mph45%29.87 "HgN/A
8:00 PM69 °FMild.5 mph42%29.86 "HgN/A
7:00 PM69 °FMild.9 mph39%29.86 "HgN/A
Weather by CustomWeather, © 2015

See weather overviewHow to use our weather pages